User: anonymous   Login
Location: Newark
(39.6889°N, 28.1522°E)
Time: 06:21:04
(UTC+00:00)
Language:

KKS-1 - Orbit

View from above orbital plane
View from above orbital plane
View from above satellite
View from above satellite

Ground track
Ground track

The orbit data is extracted from the following two-line orbital elements,

1 33499U 09002H   19340.57115425  .00000075  00000-0  19060-4 0  9998
2 33499  98.3344 184.6244 0009724  29.5108 330.6647 14.75485615584425
Epoch (UTC): 06 December 2019 13:42:27
Eccentricity: 0.0009724
inclination: 98.3344°
perigee height: 637 km
apogee height: 650 km
right ascension of ascending node: 184.6244°
argument of perigee: 29.5108°
revolutions per day: 14.75485615
mean anomaly at epoch: 330.6647°
orbit number at epoch: 58442

The dashed part of the orbit path shows where the satellite is in the earth's shadow,  

DLR